This is the latest recevied weather packets stored in our database for station/object OE3MHU-13. If no packets are shown the sender has not sent any weather packets the latest 10 day(s).
| Time | Temp. | Humidity | Pressure | Rain* | Wind** | Luminosity | Snow |
|---|---|---|---|---|---|---|---|
| 1778066923 | 23.89° C | 48% | 1008.2 hPa | 0 mm | - | - | - |
| 1778066623 | 23.89° C | 49% | 1008.2 hPa | 0 mm | - | - | - |
| 1778066321 | 23.89° C | 51% | 1008.2 hPa | 0 mm | - | - | - |
| 1778066022 | 23.33° C | 53% | 1008.4 hPa | 0 mm | - | - | - |
| 1778065723 | 22.78° C | 52% | 1008.4 hPa | 0 mm | - | - | - |
| 1778065419 | 22.78° C | 52% | 1008.5 hPa | 0 mm | - | - | - |
| 1778065119 | 22.78° C | 51% | 1008.6 hPa | 0 mm | - | - | - |
| 1778064818 | 22.78° C | 52% | 1008.5 hPa | 0 mm | - | - | - |
| 1778064518 | 22.78° C | 50% | 1008.7 hPa | 0 mm | - | - | - |
| 1778064218 | 23.33° C | 51% | 1008.7 hPa | 0 mm | - | - | - |
| 1778063917 | 23.33° C | 52% | 1008.8 hPa | 0 mm | - | - | - |
| 1778063611 | 23.33° C | 50% | 1008.8 hPa | 0 mm | - | - | - |
| 1778063310 | 23.33° C | 51% | 1008.8 hPa | 0 mm | - | - | - |
| 1778063011 | 23.33° C | 51% | 1008.8 hPa | 0 mm | - | - | - |
| 1778062711 | 23.33° C | 52% | 1008.8 hPa | 0 mm | - | - | - |
| 1778062411 | 23.33° C | 52% | 1009.1 hPa | 0 mm | - | - | - |
| 1778062111 | 23.33° C | 52% | 1009.1 hPa | 0 mm | - | - | - |
| 1778061811 | 23.33° C | 52% | 1009.2 hPa | 0 mm | - | - | - |
| 1778061511 | 23.33° C | 50% | 1009.1 hPa | 0 mm | - | - | - |
| 1778061210 | 23.33° C | 50% | 1009.3 hPa | 0 mm | - | - | - |
| 1778060909 | 23.33° C | 50% | 1009.4 hPa | 0 mm | - | - | - |
| 1778060610 | 23.33° C | 52% | 1009.4 hPa | 0 mm | - | - | - |
| 1778060307 | 22.78° C | 53% | 1009.3 hPa | 0 mm | - | - | - |
| 1778060007 | 22.78° C | 51% | 1009.4 hPa | 0 mm | - | - | - |
| 1778059708 | 22.78° C | 54% | 1009.6 hPa | 0 mm | - | - | - |
* Rain latest hour (hover to see other rain measurements)
** Current wind speed in m/s (hover to see current wind gust speed)